459P/Catalina (2010)

Japanese version
Home page
Updated on April 22, 2023

---------------------------------------------------------------------

* Profile

Designation 459P/2010 VH95
Discovery Date November 7, 2010
Magnitude 19.2 mag
Discoverer Catalina Sky Survey

* Orbital Elements

                    Epoch = 2010 Nov. 20.0 TT
     T = 2010 Dec.  7.40013 TT        Peri. = 189.35822
     e = 0.5187990                    Node  = 272.48471 2000.0
     q = 1.6114398 AU                 Incl. =  13.56209
       a =  3.3487875 AU   n = 0.16083208   P =   6.13 years

---------------------------------------------------------------------

The orbital elements are printed on CBET 5241.
The magnitudes graphs are made with Comet for Windows.

---------------------------------------------------------------------

Copyright(C) Seiichi Yoshida (comet@aerith.net). All rights reserved.